This demonstration page uses our WeatherBlox Daily Observations layout. Learn more.

Left ArrowRight Arrow

Hourly Observations for October 18, 2015

Temp ( °F °C ) Dew Point ( °F °C ) Humidity (%) Winds ( mph kmh ) Pressure ( in mb ) Visibility ( mi km ) Precip ( " mm )
12:53 am 00:53 Clear 29 -1.7 26 -3.3 89 89 Calm 30.45 1031 10 16 0.00 0.00
1:53 am 01:53 Clear 28 -2.2 25 -3.9 88 88 Calm 30.45 1031 10 16 0.00 0.00
2:53 am 02:53 Clear 27 -2.8 24 -4.4 89 89 Calm 30.45 1031 10 16 0.00 0.00
3:53 am 03:53 Clear 26 -3.3 24 -4.4 92 92 Calm 30.45 1031 10 16 0.00 0.00
4:53 am 04:53 Clear 25 -3.9 24 -4.4 96 96 Calm 30.46 1032 10 16 0.00 0.00
5:53 am 05:53 Clear 25 -3.9 24 -4.4 96 96 Calm 30.48 1032 10 16 0.00 0.00
6:53 am 06:53 Clear 25 -3.9 23 -5 92 92 Calm 30.49 1032 10 16 0.00 0.00
7:53 am 07:53 Sunny 24 -4.4 22 -5.6 91 91 Calm 30.51 1033 10 16 0.00 0.00
8:53 am 08:53 Sunny 31 -0.6 29 -1.7 92 92 Calm 30.53 1034 9 14 0.00 0.00
9:53 am 09:53 Sunny 38 3.3 32 0 79 79 Calm 30.54 1034 10 16 0.00 0.00
10:53 am 10:53 Sunny 45 7.2 28 -2.2 52 52 WSW 6 9 30.54 1034 10 16 0.00 0.00
11:53 am 11:53 Sunny 50 10 29 -1.7 44 44 Calm 30.53 1034 10 16 0.00 0.00
12:53 pm 12:53 Sunny 55 12.8 28 -2.2 35 35 NNW 5 7 30.52 1034 10 16 0.00 0.00
1:53 pm 13:53 Sunny 57 13.9 26 -3.3 30 30 NNW 13 20 30.50 1033 10 16 0.00 0.00
2:53 pm 14:53 Sunny 60 15.6 28 -2.2 30 30 N 8 13 30.48 1032 10 16 0.00 0.00
3:53 pm 15:53 Sunny 59 15 26 -3.3 28 28 NW 13 20 30.46 1031 10 16 0.00 0.00
4:53 pm 16:53 Sunny 59 15 25 -3.9 27 27 NNW 10 17 30.45 1031 10 16 0.00 0.00
5:53 pm 17:53 Sunny 57 13.9 24 -4.4 28 28 NW 6 9 30.44 1031 10 16 0.00 0.00
6:53 pm 18:53 Sunny 50 10 27 -2.8 41 41 Calm 30.43 1031 10 16 0.00 0.00
7:53 pm 19:53 Clear 40 4.4 29 -1.7 65 65 Calm 30.45 1031 10 16 0.00 0.00
8:53 pm 20:53 Clear 37 2.8 29 -1.7 73 73 Calm 30.45 1031 10 16 0.00 0.00
9:53 pm 21:53 Clear 34 1.1 28 -2.2 79 79 Calm 30.45 1031 10 16 0.00 0.00
10:53 pm 22:53 Clear 33 0.6 29 -1.7 85 85 Calm 30.45 1031 10 16 0.00 0.00
11:53 pm 23:53 Clear 31 -0.6 28 -2.2 89 89 Calm 30.44 1031 10 16 0.00 0.00

Powered by AerisWeather